YAOGAN-30 W (46809 NORAD) Tracking and Keplerian Element Data

This shows tracking and keplerian element data for the satellite.

Feedback or suggestion? Click here.




ElementValue
Catalog46809
NameYAOGAN-30 W
Epoch Orbit451
Epoch Day330.9619653
Epoch Year2020
RAAN59.4755
Inclination34.999
Eccentricity0.0006681
Argument of Perigee169.5342
Mean Anonmoly190.55
Mean Motion14.89825486
Decay Rate3.22E-06
L11 46809U 20076C 20330.96196530 .00000322 00000-0 35611-4 0 9996
L22 46809 34.9990 59.4755 0006681 169.5342 190.5500 14.89825486 4514

Live tracking and technical data element details for YAOGAN-30 W (NORAD 46809). YAOGAN-30 W can be tracked NOW for your location showing map with azimuth and elevation plus other details from your city location.

Track the satellite on the map from your city or location and see movement details for azimuth, elevation, latitude, longitude, range, height, and movement on the map or in text.







IsCatalogInMostPopularTable: catalog: 46809, numindb: 8
Update: records affected: 1



GetName: 46809 YAOGAN-30 W

Hit Count: updated at: Thu, 26 Nov 2020 21:08:57 GMT